Retour au catalogue

STARLINK-35611

ActifCommunicationsVLEO
NORAD 66427·PAYLOAD·🇺🇸 United States

Lancé Nov 11, 2025 depuis Cape Canaveral Space Force Station

Loading…

Prochains Passages (prochaines 24 heures)

TLE

FraisSource: CelesTrak SupGP

Époque: Sep 14, 2026, 23:07 UTC

1 66427C 25259F   26257.96368056  .00027274  00000+0  98793-3 0  2570
2 66427  43.0022 285.3956 0001594 265.9327 275.8683 15.27562857    17

Suivez STARLINK-35611 en temps réel avec AllMySat

Download on the App Store